[[{"header":{"parameterUnit":"m.s-1","parameterCategory":1,"la1":30.2991,"la2":30.254,"lo1":-89.0895,"lo2":-89.0444,"dy":0.0017,"dx":0.0017,"nx":28,"ny":28,"refTime":"2025-02-13T09:00:00:Z","depth":0,"parameterNumber":2,"parameterNumberName":"U-component_of_WINDS"},"data":[0,0,0,0,0,0,0,0,0,0,0,0,0,0,0,0,0,0,0,0,0,0,0,0,0,0,0,0,0,0,0,0,0,0,0,0,0,0,0,0,0,0,0,0,0,0,0,0,0,0,0,0,0,0,0,0,0,0,-7.2188,-7.219,0,-7.2341,-7.2343,-7.2345,-7.2283,-7.228,-7.2276,-7.2273,-7.2427,-7.2434,-7.2441,0,0,0,0,0,0,0,0,0,0,0,0,0,-7.1843,-7.185,-7.2188,-7.219,-7.2192,-7.2341,-7.2343,-7.2345,-7.2284,-7.228,-7.2275,-7.2271,-7.2424,-7.2433,-7.2442,0,0,0,0,0,0,0,0,0,0,0,0,0,-7.1994,-7.1852,-7.2188,-7.218,-7.218,-7.2341,-7.2343,-7.2346,-7.2285,-7.2279,-7.2274,-7.2269,-7.2421,-7.2432,-7.2443,-7.262,0,0,-7.2477,-7.2482,0,0,0,0,0,0,0,0,-7.1985,-7.2007,-7.2179,-7.2181,-7.2182,-7.2288,-7.2278,-7.2437,-7.2286,-7.2245,-7.2273,-7.2266,-7.2385,-7.2398,-7.2439,-7.2627,-7.2633,-7.2478,-7.2485,-7.249,-7.2493,0,0,0,0,0,0,0,-7.1975,-7.2,-7.2249,-7.2182,-7.2183,-7.2168,-7.2184,-7.2308,-7.2343,-7.2248,-7.2244,-7.2263,-7.2384,-7.2428,-7.2442,-7.2636,-7.2478,-7.2488,-7.2495,-7.2499,-7.2977,-7.2983,0,0,0,0,0,0,-7.1965,-7.1991,-7.2244,-7.2253,-7.2068,-7.2179,-7.2196,-7.2259,-7.2342,-7.2349,-7.2268,-7.226,-7.2412,-7.2429,-7.2447,-7.2658,-7.249,-7.25,-7.2507,-7.2971,-7.2978,-7.2985,0,0,0,0,0,0,-7.1957,-7.1988,-7.2238,-7.2121,-7.2152,-7.219,-7.2262,-7.2265,-7.2309,-7.2356,-7.2362,-7.2306,-7.2408,-7.2431,-7.2577,-7.2662,-7.2505,-7.2515,-7.2964,-7.2973,-7.2981,-7.3082,0,0,0,0,0,0,-7.1948,-7.1985,-7.2053,-7.2123,-7.2159,-7.2366,-7.2267,-7.2272,-7.2328,-7.232,-7.2394,-7.2401,-7.2406,-7.2561,-7.2589,-7.2675,-7.2524,-7.2956,-7.2968,-7.2979,-7.3071,-7.3093,-7.3112,0,0,0,0,0,-7.1936,-7.2074,-7.2056,-7.2087,-7.2243,-7.2371,-7.2391,-7.2394,-7.2336,-7.2403,-7.2434,-7.2398,-7.265,-7.2577,-7.2607,-7.2698,-7.2951,-7.2965,-7.2978,-7.3062,-7.3089,-7.3112,0,0,0,0,0,0,-7.201,-7.2083,-7.2064,-7.223,-7.2295,-7.236,-7.2445,-7.2423,-7.2504,-7.2493,-7.2493,-7.2511,-7.2661,-7.2695,-7.2612,-7.2874,-7.2791,-7.2812,-7.2845,-7.2871,-7.2891,-7.2878,-7.2533,0,0,0,0,0,-7.2047,-7.2144,-7.2203,-7.2343,-7.2377,-7.2406,-7.2461,-7.2459,-7.2526,-7.2553,-7.2594,-7.266,-7.2754,-7.2815,-7.2904,-7.3078,-7.3092,-7.3156,-7.3176,-7.3193,-7.3209,-7.3302,-7.3331,-7.3029,-7.3029,-7.3029,0,0,-7.2121,-7.2173,-7.2234,-7.236,-7.2409,-7.251,-7.2429,-7.2539,-7.2613,-7.2569,-7.2708,-7.2743,-7.2816,-7.2977,-7.3049,-7.3009,-7.3296,-7.321,-7.3223,-7.323,-7.3319,-7.3348,-7.3373,-7.3038,-7.3036,-7.3035,0,0,-7.2307,-7.2358,-7.248,-7.2533,-7.261,-7.2629,-7.2659,-7.2729,-7.275,-7.2891,-7.2861,-7.295,-7.3112,-7.3165,-7.3213,-7.3426,-7.3395,-7.3455,-7.356,-7.3652,-7.3675,-7.3696,-7.3769,-7.3796,-7.3472,-7.3472,-7.3472,0,-7.2389,-7.254,-7.2545,-7.2658,-7.2713,-7.2682,-7.2805,-7.2856,-7.2958,-7.2997,-7.2952,-7.3156,-7.3203,-7.3375,-7.3427,-7.3469,-7.3502,-7.3443,-7.3672,-7.3693,-7.3713,-7.3782,-7.381,-7.3479,-7.3478,-7.3477,-7.3477,0,-7.2636,-7.2741,-7.2831,-7.2932,-7.2999,-7.3116,-7.3139,-7.3206,-7.32,-7.3224,-7.3369,-7.3426,-7.3526,-7.3568,-7.3562,-7.374,-7.3713,-7.3671,-7.3587,-7.3748,-7.3813,-7.384,-7.3488,-7.3486,-7.3484,-7.3482,0,0,-7.2867,-7.2973,-7.3005,-7.3051,-7.3137,-7.3218,-7.3336,-7.3435,-7.3491,-7.3565,-7.3662,-7.3802,-7.3764,-7.382,-7.3821,-7.3902,-7.4064,-7.3849,-7.3851,-7.3884,-7.4261,-7.4289,-7.432,-7.4047,-7.4052,-7.4056,-7.4254,0,-7.3057,-7.3262,-7.3273,-7.3459,-7.3556,-7.353,-7.3632,-7.3695,-7.3723,-7.3809,-7.3839,-7.3937,-7.3881,-7.3914,-7.3994,-7.4027,-7.4139,-7.4014,-7.4135,-7.4139,-7.4112,-7.4355,-7.4384,-7.4568,-7.428,-7.4284,-7.4287,0,-7.3304,-7.3387,-7.3583,-7.3657,-7.3698,-7.3789,-7.3881,-7.3965,-7.4038,-7.4052,-7.4116,-7.4107,-7.4227,-7.4144,-7.4309,-7.4224,-7.4275,-7.43,-7.4307,-7.4314,-7.4219,-7.4364,-7.4627,-7.4652,-7.4328,-7.4325,-7.4322,0,-7.3449,-7.361,-7.3748,-7.3789,-7.3879,-7.3943,-7.3984,-7.4051,-7.4111,-7.4193,-7.4231,-7.4326,-7.4377,-7.4451,-7.4467,-7.4406,-7.4632,-7.4551,-7.4645,-7.4645,-7.4689,-7.4685,-7.4958,-7.473,-7.473,-7.4729,-7.4729,0,-7.3657,-7.3777,-7.3814,-7.3899,-7.4033,-7.4046,-7.4178,-7.4214,-7.4276,-7.4366,-7.4352,-7.4437,-7.4456,-7.4545,-7.456,-7.4693,-7.4717,-7.4731,-7.4732,-7.473,-7.4727,-7.4759,-7.4745,-7.4737,-7.4735,-7.4734,-7.4732,0,-7.3839,-7.3869,-7.4017,-7.4092,-7.4114,-7.4209,-7.4272,-7.4354,-7.4381,-7.4497,-7.4525,-7.4567,-7.4672,-7.4698,-7.4823,-7.4833,-7.499,-7.4981,-7.4965,-7.4963,-7.5054,-7.5044,-7.5354,-7.5394,-7.5144,-7.5146,-7.5148,0,-7.3967,-7.4059,-7.4144,-7.4205,-7.4248,-7.4346,-7.4407,-7.4425,-7.449,-7.4582,-7.4652,-7.4756,-7.4838,-7.5008,-7.505,-7.5146,-7.5137,-7.5239,-7.515,-7.5145,-7.5134,-7.5126,-7.5135,-7.5254,-7.5257,-7.5259,-7.5261,0,-7.419,-7.4201,-7.4291,-7.4387,-7.4461,-7.4537,-7.461,-7.466,-7.4688,-7.4762,-7.487,-7.4935,-7.5064,-7.5167,-7.5264,-7.5306,-7.5288,-7.529,-7.5316,-7.5311,-7.5296,-7.5302,-7.5006,-7.528,-7.5278,-7.5277,-7.5276,-7.5275,-7.4346,-7.4426,-7.45,-7.46,-7.4658,-7.4727,-7.4807,-7.4846,-7.4937,-7.5043,-7.505,-7.5166,-7.5239,-7.5368,-7.5416,-7.5508,-7.5476,-7.5515,-7.5524,-7.5532,-7.5539,-7.5287,-7.5526,-7.5526,-7.5525,-7.5525,-7.5525,0,-7.4565,-7.4612,-7.4705,-7.4808,-7.4888,-7.4868,-7.4949,-7.5016,-7.5119,-7.519,-7.5273,-7.5398,-7.5498,-7.5551,-7.5651,-7.5714,-7.5708,-7.5739,-7.5732,-7.5742,-7.5563,-7.5528,-7.5742,-7.5742,-7.5742,-7.5742,-7.5742,-7.5742,-7.4688,-7.4823,-7.4844,-7.5007,-7.5054,-7.5169,-7.5216,-7.528,-7.5336,-7.5476,-7.556,-7.5595,-7.5658,-7.5763,-7.5855,-7.5868,-7.5903,-7.5938,-7.5946,-7.5777,-7.5754,-7.5733,-7.57,-7.5947,-7.5947,-7.6117,-7.6118,-7.612]},{"header":{"parameterUnit":"m.s-1","parameterCategory":1,"la1":30.2991,"la2":30.254,"lo1":-89.0895,"lo2":-89.0444,"dy":0.0017,"dx":0.0017,"nx":28,"ny":28,"refTime":"2025-02-13T09:00:00:Z","depth":0,"parameterNumber":3,"parameterNumberName":"V-component_of_WINDS"},"data":[0,0,0,0,0,0,0,0,0,0,0,0,0,0,0,0,0,0,0,0,0,0,0,0,0,0,0,0,0,0,0,0,0,0,0,0,0,0,0,0,0,0,0,0,0,0,0,0,0,0,0,0,0,0,0,0,0,0,2.7837,2.7839,0,2.7948,2.7949,2.795,2.7938,2.7936,2.7934,2.7933,2.8044,2.8048,2.8053,0,0,0,0,0,0,0,0,0,0,0,0,0,2.7617,2.7621,2.7837,2.7839,2.784,2.7948,2.7949,2.7951,2.7938,2.7936,2.7934,2.7932,2.8042,2.8048,2.8053,0,0,0,0,0,0,0,0,0,0,0,0,0,2.7719,2.7623,2.7837,2.7847,2.7849,2.7947,2.7949,2.7951,2.7939,2.7936,2.7933,2.7931,2.8041,2.8047,2.8054,2.8149,0,0,2.8075,2.8078,0,0,0,0,0,0,0,0,2.7713,2.7727,2.7844,2.7846,2.7849,2.7926,2.7912,2.8017,2.7939,2.7905,2.7933,2.793,2.8007,2.8016,2.8043,2.8154,2.8159,2.8076,2.808,2.8083,2.8085,0,0,0,0,0,0,0,2.7706,2.7722,2.7881,2.7846,2.7849,2.7846,2.7858,2.7932,2.7969,2.7907,2.7907,2.792,2.8008,2.8036,2.8045,2.8161,2.8075,2.8082,2.8086,2.8089,2.836,2.8363,0,0,0,0,0,0,2.7696,2.7716,2.7877,2.7884,2.7773,2.7852,2.7865,2.7904,2.7968,2.7975,2.7922,2.7919,2.8026,2.8037,2.8049,2.8167,2.8083,2.8089,2.8093,2.8357,2.8361,2.8364,0,0,0,0,0,0,2.7692,2.7711,2.7873,2.78,2.7821,2.7859,2.7903,2.7908,2.7936,2.7979,2.7986,2.7945,2.8024,2.8039,2.8125,2.8171,2.8092,2.8099,2.8353,2.8358,2.8362,2.8402,0,0,0,0,0,0,2.7685,2.7709,2.7745,2.7801,2.7825,2.7947,2.7905,2.7912,2.7948,2.7945,2.8002,2.8009,2.8023,2.8115,2.8132,2.8179,2.8104,2.8349,2.8355,2.8361,2.8397,2.8407,2.8416,0,0,0,0,0,2.7678,2.7751,2.7747,2.7767,2.787,2.795,2.7963,2.7978,2.7952,2.7989,2.8017,2.8007,2.8163,2.8124,2.8143,2.8192,2.8346,2.8354,2.836,2.8392,2.8405,2.8416,0,0,0,0,0,0,2.7697,2.7758,2.7755,2.7848,2.7894,2.7947,2.7994,2.7991,2.8045,2.804,2.8056,2.8069,2.8157,2.8183,2.8138,2.829,2.8251,2.8262,2.8269,2.8282,2.8291,2.8283,2.811,0,0,0,0,0,2.7713,2.7772,2.7822,2.79,2.7923,2.7955,2.799,2.7999,2.8046,2.8066,2.81,2.8147,2.8207,2.8246,2.8303,2.8401,2.8414,2.8445,2.8454,2.8462,2.8472,2.8529,2.8543,2.8387,2.8387,2.8386,0,0,2.7744,2.7785,2.7821,2.7905,2.7941,2.8004,2.7971,2.8037,2.8084,2.8075,2.8159,2.8187,2.824,2.8334,2.8376,2.8358,2.8518,2.8471,2.8477,2.8482,2.8537,2.8552,2.8565,2.8391,2.839,2.839,0,0,2.7835,2.7871,2.7941,2.7979,2.8036,2.8058,2.8075,2.813,2.8148,2.8233,2.8229,2.8285,2.8387,2.8427,2.846,2.857,2.8564,2.8589,2.864,2.8695,2.8708,2.8719,2.876,2.8774,2.8598,2.8598,2.8598,0,2.7867,2.796,2.7977,2.8045,2.8083,2.8081,2.8153,2.8189,2.8261,2.8288,2.8267,2.8398,2.8433,2.8537,2.8565,2.8591,2.8613,2.8582,2.8705,2.8716,2.8726,2.8766,2.8781,2.8601,2.86,2.86,2.86,0,2.7998,2.8064,2.8114,2.8186,2.8229,2.8299,2.8327,2.837,2.8375,2.8399,2.8488,2.8531,2.8599,2.8624,2.8629,2.8731,2.8718,2.8701,2.8662,2.8744,2.8782,2.8797,2.8605,2.8604,2.8603,2.8602,0,0,2.8101,2.8185,2.8203,2.8238,2.8302,2.8353,2.8424,2.8492,2.8529,2.8579,2.864,2.8729,2.8715,2.8753,2.8763,2.8812,2.89,2.8789,2.8791,2.8809,2.9017,2.903,2.9047,2.8896,2.8899,2.8901,2.9013,0,2.8199,2.8325,2.8344,2.8455,2.8517,2.8518,2.858,2.8627,2.8653,2.8709,2.8737,2.8801,2.8776,2.8799,2.8848,2.8879,2.8942,2.8871,2.8954,2.8957,2.8941,2.9066,2.908,2.9183,2.9027,2.903,2.9032,0,2.8329,2.8386,2.8504,2.8564,2.8591,2.8646,2.8712,2.8766,2.882,2.8835,2.888,2.8886,2.8961,2.892,2.9025,2.8976,2.9012,2.9033,2.9037,2.9046,2.8999,2.908,2.9216,2.9232,2.9055,2.9053,2.9051,0,2.8395,2.8501,2.8586,2.8615,2.8686,2.8726,2.8758,2.881,2.885,2.8908,2.8935,2.9,2.9036,2.9087,2.911,2.9078,2.9215,2.9175,2.923,2.923,2.9259,2.9257,2.9404,2.928,2.928,2.928,2.9279,0,2.8502,2.8574,2.8617,2.8669,2.8752,2.8774,2.8855,2.8886,2.8933,2.8992,2.8996,2.9052,2.9079,2.9139,2.9158,2.9244,2.9259,2.9275,2.9279,2.9275,2.9273,2.9298,2.9292,2.9284,2.9283,2.9282,2.9281,0,2.8588,2.862,2.8713,2.8775,2.8792,2.885,2.8903,2.8955,2.8981,2.9057,2.9075,2.9117,2.9189,2.9217,2.9304,2.9317,2.9416,2.9414,2.9398,2.94,2.9454,2.945,2.9623,2.9648,2.9507,2.9509,2.951,0,2.8655,2.8711,2.878,2.8821,2.8855,2.8919,2.8962,2.8987,2.9032,2.9101,2.9145,2.9217,2.9275,2.939,2.9428,2.9496,2.9496,2.9553,2.9506,2.9502,2.9499,2.9496,2.9503,2.9561,2.9562,2.9564,2.9565,0,2.8771,2.8785,2.8846,2.8915,2.8966,2.9021,2.9074,2.9107,2.9141,2.9191,2.9266,2.9311,2.9402,2.9474,2.9545,2.9578,2.9578,2.9579,2.9596,2.9593,2.9582,2.9591,2.9423,2.9575,2.9574,2.9573,2.9573,2.9572,2.8851,2.8902,2.896,2.903,2.9073,2.9124,2.9177,2.9212,2.9274,2.9351,2.9362,2.9442,2.9499,2.9594,2.963,2.9694,2.9679,2.9703,2.9709,2.9715,2.972,2.9572,2.9706,2.9706,2.9706,2.9706,2.9706,0,2.8968,2.9007,2.9071,2.9147,2.9202,2.9199,2.9259,2.9306,2.9376,2.943,2.9489,2.9576,2.9647,2.9692,2.9764,2.9807,2.9809,2.9825,2.9822,2.9831,2.9727,2.9707,2.9822,2.9822,2.9822,2.9822,2.9822,2.9822,2.9036,2.9124,2.9146,2.9257,2.9294,2.9374,2.9409,2.9457,2.95,2.9597,2.9657,2.9686,2.9737,2.9814,2.988,2.9891,2.9918,2.9936,2.9947,2.9849,2.9837,2.9826,2.9806,2.9941,2.9941,3.0045,3.0046,3.0046]}]]